Peru, IN

7:55 PM EDT on April 23, 2017 (GMT -0400)
Grissom Air Reserve Base

Weather History for KGUS - July, 2013

Change the Weather History Date:

Wednesday, July 31, 2013

  Actual Average Record
Temperature  
Mean Temperature 68 °F -  
Max Temperature 74 °F 80 °F 93 °F (2006)
Min Temperature 64 °F 64 °F 54 °F (2014)
Cooling Degree Days 4    
Growing Degree Days 18 (Base 50)    
Moisture  
Dew Point 67 °F    
Average Humidity 98    
Maximum Humidity 100    
Minimum Humidity 88    
Precipitation  
Precipitation 0.43 in - - ()
Sea Level Pressure  
Sea Level Pressure 30.04 in    
Wind  
Wind Speed 4 mph (South)    
Max Wind Speed 12 mph    
Max Gust Speed -    
Visibility 5 miles    
Events Rain    
Averages and records for this station are not official NWS values.
T = Trace of Precipitation, MM = Missing Value Source: NWS Daily Summary

Daily Weather History Graph

Daily Weather History Graph

Search for Another Location

Airport or City:

Trip Planner

Search our weather history database for the weather conditions in past years. The results will help you decide how hot, cold, wet, or windy it might be!

Date:

Astronomy

Jul. 31, 2013 Rise Set
Actual Time 6:40 AM EDT 9:00 PM EDT
Civil Twilight 6:09 AM EDT 9:31 PM EDT
Nautical Twilight 5:31 AM EDT 10:09 PM EDT
Astronomical Twilight 4:49 AM EDT 10:50 PM EDT
Moon 1:35 AM EDT (7/31) 4:16 PM EDT (7/31)
Length of Visible Light 15h 21m
Length of Day
14h 19m
Waning Crescent, 32% of the Moon is Illuminated
Jul 31
Waning Crescent
Aug 6
New
Aug 14
First Quarter
Aug 20
Full
Aug 28
Last Quarter

Hourly Weather History & Observations

Time (EDT) Temp. Dew Point Humidity Pressure Visibility Wind Dir Wind Speed Gust Speed Precip Events Conditions
12:58 AM 66.0 °F 64.9 °F 96% 30.11 in 10.0 mi SE 3.5 mph - N/A   Overcast
1:33 AM 66.2 °F 64.4 °F 94% 30.11 in 8.0 mi SSE 2.3 mph - N/A   Overcast
1:43 AM 66.2 °F 64.4 °F 94% 30.10 in 10.0 mi SSE 2.3 mph - N/A   Overcast
1:58 AM 66.2 °F 65.3 °F 97% 30.10 in 10.0 mi SSE 2.3 mph - N/A   Overcast
2:13 AM 66.2 °F 66.2 °F 100% 30.10 in 8.0 mi South 4.6 mph - N/A   Overcast
2:16 AM 66.2 °F 64.4 °F 94% 30.10 in 5.0 mi South 4.6 mph - N/A   Light Drizzle
2:21 AM 66.2 °F 66.2 °F 100% 30.10 in 3.0 mi South 4.6 mph - N/A Rain Light Rain
2:26 AM 66.2 °F 66.2 °F 100% 30.09 in 2.5 mi South 3.5 mph - N/A Rain Light Rain
2:31 AM 66.2 °F 66.2 °F 100% 30.09 in 2.0 mi SSW 3.5 mph - N/A Rain Light Rain
2:36 AM 66.2 °F 66.2 °F 100% 30.09 in 1.8 mi SSW 2.3 mph - N/A Rain Light Rain
2:41 AM 66.2 °F 66.2 °F 100% 30.09 in 2.0 mi SSW 2.3 mph - N/A Rain Rain
2:46 AM 66.2 °F 66.2 °F 100% 30.09 in 2.0 mi Calm Calm - N/A Rain Rain
2:56 AM 66.2 °F 66.2 °F 100% 30.08 in 2.5 mi Calm Calm - N/A Rain Rain
2:58 AM 65.3 °F 65.3 °F 100% 30.08 in 2.5 mi South 1.2 mph - 0.09 in Rain Light Rain
3:08 AM 64.4 °F 64.4 °F 100% 30.08 in 4.0 mi South 2.3 mph - N/A Rain Light Rain
3:13 AM 64.4 °F 64.4 °F 100% 30.08 in 4.0 mi South 2.3 mph - N/A Rain Light Rain
3:18 AM 64.4 °F 64.4 °F 100% 30.08 in 4.0 mi SE 1.2 mph - N/A   Light Drizzle
3:20 AM 64.4 °F 64.4 °F 100% 30.08 in 4.0 mi Calm Calm - N/A   Overcast
3:25 AM 64.4 °F 64.4 °F 100% 30.08 in 3.0 mi Calm Calm - N/A   Overcast
3:50 AM 66.2 °F 66.2 °F 100% 30.08 in 4.0 mi Calm Calm - N/A   Overcast
3:55 AM 66.2 °F 66.2 °F 100% 30.08 in 4.0 mi Calm Calm - N/A   Overcast
3:58 AM 65.5 °F 65.5 °F 100% 30.08 in 4.0 mi Calm Calm - 0.01 in   Overcast
4:06 AM 66.2 °F 66.2 °F 100% 30.07 in 3.0 mi Calm Calm - N/A Rain Light Rain
4:16 AM 66.2 °F 66.2 °F 100% 30.07 in 3.0 mi Calm Calm - N/A   Overcast
4:18 AM 66.2 °F 66.2 °F 100% 30.07 in 3.0 mi Calm Calm - N/A Rain Light Rain
4:23 AM 66.2 °F 66.2 °F 100% 30.07 in 2.5 mi Variable 1.2 mph - N/A Rain Light Rain
4:33 AM 66.2 °F 66.2 °F 100% 30.07 in 3.0 mi WSW 1.2 mph - N/A Rain Light Rain
4:48 AM 66.2 °F 66.2 °F 100% 30.07 in 2.5 mi Calm Calm - N/A   Light Drizzle
4:53 AM 66.2 °F 66.2 °F 100% 30.07 in 2.0 mi East 2.3 mph - N/A Rain Light Rain
4:58 AM 65.5 °F 65.5 °F 100% 30.07 in 2.0 mi East 2.3 mph - 0.02 in Rain Light Rain
5:05 AM 66.2 °F 66.2 °F 100% 30.06 in 2.0 mi ESE 3.5 mph - N/A Rain Light Rain
5:10 AM 66.2 °F 66.2 °F 100% 30.06 in 1.8 mi SE 3.5 mph - N/A Rain Light Rain
5:20 AM 66.2 °F 66.2 °F 100% 30.06 in 2.5 mi SE 3.5 mph - N/A Rain Light Rain
5:25 AM 66.2 °F 66.2 °F 100% 30.06 in 3.0 mi SE 2.3 mph - N/A Rain Light Rain
5:30 AM 64.4 °F 64.4 °F 100% 30.06 in 2.5 mi SE 3.5 mph - N/A Rain Light Rain
5:40 AM 64.4 °F 64.4 °F 100% 30.06 in 2.5 mi SE 4.6 mph - N/A   Light Drizzle
5:50 AM 64.4 °F 64.4 °F 100% 30.06 in 3.0 mi SE 3.5 mph - N/A Rain Light Rain
5:55 AM 64.4 °F 64.4 °F 100% 30.06 in 4.0 mi Variable 5.8 mph - N/A Rain Light Rain
5:58 AM 64.9 °F 64.9 °F 100% 30.06 in 4.0 mi Variable 5.8 mph - 0.09 in Rain Light Rain
6:03 AM 64.4 °F 64.4 °F 100% 30.06 in 6.0 mi South 5.8 mph - N/A Rain Light Rain
6:25 AM 64.4 °F 64.4 °F 100% 30.06 in 6.0 mi SE 2.3 mph - N/A   Light Drizzle
6:30 AM 64.4 °F 64.4 °F 100% 30.06 in 6.0 mi SE 3.5 mph - N/A   Light Drizzle
6:33 AM 64.4 °F 64.4 °F 100% 30.06 in 6.0 mi SE 4.6 mph - N/A   Overcast
6:41 AM 64.4 °F 64.4 °F 100% 30.06 in 7.0 mi ESE 3.5 mph - N/A   Overcast
6:46 AM 64.4 °F 64.4 °F 100% 30.06 in 6.0 mi ESE 3.5 mph - N/A   Overcast
6:58 AM 64.6 °F 64.6 °F 100% 30.06 in 3.0 mi SE 4.6 mph - 0.02 in Rain Light Rain
7:25 AM 64.4 °F 64.4 °F 100% 30.06 in 2.5 mi SE 4.6 mph - N/A   Light Drizzle
7:40 AM 64.4 °F 64.4 °F 100% 30.05 in 3.0 mi SSE 8.1 mph - N/A   Light Drizzle
7:55 AM 64.4 °F 64.4 °F 100% 30.05 in 4.0 mi SSE 6.9 mph - N/A   Light Drizzle
7:58 AM 64.6 °F 64.6 °F 100% 30.05 in 4.0 mi SSE 6.9 mph - 0.03 in   Light Drizzle
8:13 AM 64.4 °F 64.4 °F 100% 30.05 in 6.0 mi SSE 8.1 mph - N/A   Overcast
8:38 AM 64.4 °F 64.4 °F 100% 30.06 in 8.0 mi South 6.9 mph - N/A   Overcast
8:58 AM 65.3 °F 65.3 °F 100% 30.06 in 1.8 mi SSE 6.9 mph - 0.05 in Rain Rain
9:46 AM 66.2 °F 66.2 °F 100% 30.05 in 4.0 mi South 6.9 mph - N/A Rain Light Rain
9:55 AM 66.2 °F 66.2 °F 100% 30.05 in 3.0 mi South 5.8 mph - N/A   Light Drizzle
9:58 AM 65.8 °F 65.8 °F 100% 30.05 in 3.0 mi South 5.8 mph - 0.06 in   Light Drizzle
10:25 AM 66.2 °F 66.2 °F 100% 30.04 in 4.0 mi South 5.8 mph - N/A   Overcast
10:30 AM 66.2 °F 66.2 °F 100% 30.04 in 4.0 mi South 6.9 mph - N/A   Overcast
10:58 AM 66.2 °F 66.2 °F 100% 30.04 in 3.0 mi South 5.8 mph - 0.01 in   Overcast
11:07 AM 66.2 °F 66.2 °F 100% 30.04 in 2.5 mi South 5.8 mph - N/A Rain Light Rain
11:18 AM 66.2 °F 66.2 °F 100% 30.04 in 2.0 mi South 4.6 mph - N/A   Light Drizzle
11:30 AM 66.2 °F 66.2 °F 100% 30.04 in 2.5 mi South 6.9 mph - N/A   Light Drizzle
11:36 AM 66.2 °F 66.2 °F 100% 30.04 in 3.0 mi South 8.1 mph - N/A   Light Drizzle
11:58 AM 66.7 °F 66.7 °F 100% 30.04 in 3.0 mi South 8.1 mph - 0.03 in   Light Drizzle
12:58 PM 68.4 °F 68.4 °F 100% 30.02 in 10.0 mi SSW 6.9 mph - 0.02 in   Overcast
1:25 PM 68.0 °F 68.0 °F 100% 30.01 in 3.0 mi SW 5.8 mph - N/A   Light Drizzle
1:31 PM 68.0 °F 68.0 °F 100% 30.02 in 7.0 mi SW 5.8 mph - N/A   Light Drizzle
1:38 PM 68.0 °F 68.0 °F 100% 30.02 in 1.5 mi SW 6.9 mph - N/A   Light Drizzle
1:49 PM 68.0 °F 68.0 °F 100% 30.02 in 1.5 mi SSW 5.8 mph - N/A   Overcast
1:58 PM 68.9 °F 68.9 °F 100% 30.02 in 1.0 mi SW 5.8 mph - 0.00 in   Overcast
2:13 PM 69.8 °F 69.8 °F 100% 30.01 in 2.0 mi SW 5.8 mph - N/A   Overcast
2:18 PM 69.8 °F 69.8 °F 100% 30.01 in 2.0 mi SW 8.1 mph - N/A   Overcast
2:28 PM 69.8 °F 69.8 °F 100% 30.01 in 5.0 mi SSW 6.9 mph - N/A   Overcast
2:33 PM 69.8 °F 69.8 °F 100% 30.00 in 6.0 mi SSW 5.8 mph - N/A   Overcast
2:58 PM 70.5 °F 70.5 °F 100% 30.00 in 6.0 mi SW 6.9 mph - N/A   Overcast
3:18 PM 69.8 °F 69.8 °F 100% 30.00 in 6.0 mi WSW 5.8 mph - N/A   Overcast
3:58 PM 71.1 °F 70.2 °F 97% 29.99 in 7.0 mi West 4.6 mph - N/A   Overcast
4:38 PM 71.6 °F 69.8 °F 94% 29.99 in 10.0 mi West 5.8 mph - N/A   Overcast
4:55 PM 71.6 °F 69.8 °F 94% 29.98 in 7.0 mi West 4.6 mph - N/A   Light Drizzle
4:58 PM 72.1 °F 70.0 °F 93% 29.98 in 7.0 mi West 4.6 mph - 0.00 in   Light Drizzle
5:15 PM 73.4 °F 69.8 °F 88% 29.98 in 7.0 mi West 5.8 mph - N/A   Overcast
5:58 PM 73.0 °F 70.3 °F 91% 29.97 in 10.0 mi West 5.8 mph - 0.00 in   Overcast
6:18 PM 73.4 °F 69.8 °F 88% 29.96 in 10.0 mi WNW 4.6 mph - N/A   Overcast
6:35 PM 73.4 °F 69.8 °F 88% 29.96 in 7.0 mi WNW 5.8 mph - N/A   Light Drizzle
6:58 PM 73.8 °F 70.9 °F 91% 29.94 in 10.0 mi West 6.9 mph - 0.00 in   Mostly Cloudy
7:06 PM 73.4 °F 71.6 °F 94% 29.95 in 10.0 mi West 8.1 mph - N/A   Mostly Cloudy
7:58 PM 73.9 °F 70.9 °F 90% 29.95 in 10.0 mi NW 8.1 mph - N/A   Mostly Cloudy
8:58 PM 72.1 °F 69.8 °F 92% 29.95 in 10.0 mi WNW 5.8 mph - N/A   Mostly Cloudy
9:38 PM 71.6 °F 69.8 °F 94% 29.97 in 10.0 mi North 10.4 mph - N/A   Mostly Cloudy
9:58 PM 70.2 °F 67.1 °F 90% 29.97 in 10.0 mi NNW 11.5 mph - N/A   Mostly Cloudy
10:03 PM 69.8 °F 66.2 °F 88% 29.98 in 10.0 mi NNW 10.4 mph - N/A   Mostly Cloudy
10:58 PM 68.4 °F 66.0 °F 92% 29.98 in 7.0 mi NNW 5.8 mph - N/A   Overcast
11:38 PM 68.0 °F 66.2 °F 94% 29.98 in 9.0 mi NNW 5.8 mph - N/A   Mostly Cloudy
11:48 PM 68.0 °F 66.2 °F 94% 29.98 in 10.0 mi NW 5.8 mph - N/A   Mostly Cloudy
11:58 PM 67.5 °F 65.3 °F 93% 29.98 in 10.0 mi WNW 4.6 mph - N/A   Mostly Cloudy